FW6629 Weather Reports


Display with metric or nautical units.
time (UTC)temp
F
wind
direction
speed
MPH
gust
MPH
rain 1hr
in
rain 24hr
in
rain mn
in
humidity
%
barometer
mb
20260504194024 79 117 3.0 8.0 0.00 0.00 0.00 43 1013.5
20260504193521 79 125 3.0 9.0 0.00 0.00 0.00 42 1013.6
20260504193038 79 110 3.0 10.0 0.00 0.00 0.00 42 1013.8
20260504192520 79 112 5.0 10.0 0.00 0.00 0.00 44 1013.8
20260504192023 78 103 3.0 9.0 0.00 0.00 0.00 43 1013.9
20260504191537 78 260 2.0 8.0 0.00 0.00 0.00 43 1013.9
20260504191020 78 275 3.0 11.0 0.00 0.00 0.00 43 1014.1
20260504190523 78 150 5.0 12.0 0.00 0.00 0.00 43 1014.2
20260504190045 78 108 4.0 12.0 0.00 0.00 0.00 42 1014.1
20260504185522 78 113 3.0 9.0 0.00 0.00 0.00 44 1014.3
20260504185023 78 133 3.0 9.0 0.00 0.00 0.00 44 1014.2
20260504184548 77 107 4.0 8.0 0.00 0.00 0.00 44 1014.2
20260504184024 77 112 3.0 8.0 0.00 0.00 0.00 44 1014.3
20260504183524 78 174 3.0 8.0 0.00 0.00 0.00 42 1014.3
20260504183037 78 207 3.0 11.0 0.00 0.00 0.00 44 1014.3
20260504182523 78 98 5.0 11.0 0.00 0.00 0.00 44 1014.3
20260504182024 79 117 4.0 8.0 0.00 0.00 0.00 43 1014.3
20260504181538 78 92 2.0 12.0 0.00 0.00 0.00 44 1014.5
20260504181023 77 77 2.0 12.0 0.00 0.00 0.00 45 1014.5
20260504180523 77 117 6.0 11.0 0.00 0.00 0.00 43 1014.5
20260504180045 78 132 2.0 12.0 0.00 0.00 0.00 41 1014.7
20260504175522 78 204 4.0 12.0 0.00 0.00 0.00 41 1015.0
20260504175027 77 319 4.0 12.0 0.00 0.00 0.00 43 1015.0
20260504174544 77 253 2.0 10.0 0.00 0.00 0.00 44 1015.1
20260504174021 77 321 3.0 9.0 0.00 0.00 0.00 43 1015.2
20260504173522 77 233 3.0 10.0 0.00 0.00 0.00 43 1015.2
20260504173044 77 309 4.0 10.0 0.00 0.00 0.00 43 1015.2
20260504172523 77 139 2.0 8.0 0.00 0.00 0.00 44 1015.3
20260504172023 77 121 2.0 9.0 0.00 0.00 0.00 44 1015.3
20260504171540 77 36 3.0 9.0 0.00 0.00 0.00 44 1015.4
20260504171022 77 237 3.0 9.0 0.00 0.00 0.00 43 1015.4
20260504170524 76 185 3.0 9.0 0.00 0.00 0.00 46 1015.5
20260504151025 69 160 3.0 9.0 0.00 0.00 0.00 50 1016.8
20260504150526 69 128 4.0 9.0 0.00 0.00 0.00 50 1016.9
20260504141022 60 117 1.0 3.0 0.00 0.00 0.00 67 1017.3
20260504140524 60 148 1.0 3.0 0.00 0.00 0.00 68 1017.4
20260504130522 50 259 1.0 2.0 0.00 0.00 0.00 86 1017.5
20260504110524 42 153 0.0 2.0 0.00 0.00 0.00 88 1017.0
20260504100521 43 121 1.0 2.0 0.00 0.00 0.00 86 1016.9
20260504081542 46 132 0.0 2.0 0.00 0.00 0.00 83 1016.5
20260504081024 46 0 0.0 0.0 0.00 0.00 0.00 83 1016.5
20260504080521 46 0 0.0 2.0 0.00 0.00 0.00 83 1016.4
20260504050522 49 130 0.0 2.0 0.00 0.00 0.00 78 1017.5
20260504045521 50 0 0.0 2.0 0.00 0.00 0.00 78 1017.6
20260504045021 50 0 0.0 1.0 0.00 0.00 0.00 78 1017.6
20260504044537 50 117 1.0 2.0 0.00 0.00 0.00 78 1017.5
20260504044021 50 119 1.0 2.0 0.00 0.00 0.00 77 1017.6
20260504043521 50 110 0.0 2.0 0.00 0.00 0.00 76 1017.7
20260504043041 51 130 1.0 2.0 0.00 0.00 0.00 76 1017.6
20260504042522 51 0 0.0 2.0 0.00 0.00 0.00 75 1017.7
20260504042022 51 0 0.0 2.0 0.00 0.00 0.00 74 1017.7
20260504041546 51 129 0.0 2.0 0.00 0.00 0.00 73 1017.8
20260504041021 52 0 0.0 0.0 0.00 0.00 0.00 72 1017.7
20260504040523 52 0 0.0 2.0 0.00 0.00 0.00 73 1017.7
20260504040047 52 0 0.0 2.0 0.00 0.00 0.00 73 1017.6
20260504035523 52 0 0.0 2.0 0.00 0.00 0.00 73 1017.7
20260504035024 52 0 0.0 2.0 0.00 0.00 0.00 73 1017.7
20260504034540 53 132 1.0 4.0 0.00 0.00 0.00 73 1017.6
20260504034027 53 121 1.0 4.0 0.00 0.00 0.00 73 1017.6
20260504033523 53 121 2.0 3.0 0.00 0.00 0.00 73 1017.5
20260504033042 53 103 1.0 3.0 0.00 0.00 0.00 72 1017.7
20260504032523 53 116 1.0 3.0 0.00 0.00 0.00 72 1017.7
20260504032021 53 117 0.0 2.0 0.00 0.00 0.00 70 1017.7
20260504031550 54 0 0.0 2.0 0.00 0.00 0.00 70 1017.7
20260504031021 54 169 0.0 2.0 0.00 0.00 0.00 70 1017.7
20260504030521 54 244 0.0 2.0 0.00 0.00 0.00 70 1017.6
20260504030045 54 285 0.0 2.0 0.00 0.00 0.00 70 1017.4
20260504025521 54 225 0.0 3.0 0.00 0.00 0.00 70 1017.3
20260504025020 54 184 1.0 3.0 0.00 0.00 0.00 70 1017.2
20260504024544 55 107 1.0 3.0 0.00 0.00 0.00 70 1017.2
20260504024021 55 138 1.0 4.0 0.00 0.00 0.00 69 1017.2
20260504023523 55 103 2.0 4.0 0.00 0.00 0.00 69 1017.2
20260504023041 55 118 3.0 4.0 0.00 0.00 0.00 70 1017.3
20260504022524 55 106 1.0 3.0 0.00 0.00 0.00 70 1017.2
20260504022024 55 112 1.0 2.0 0.00 0.00 0.00 69 1017.4
20260504021537 55 121 1.0 2.0 0.00 0.00 0.00 69 1017.2
20260504021023 56 119 0.0 2.0 0.00 0.00 0.00 68 1017.2
20260504020520 56 128 1.0 2.0 0.00 0.00 0.00 68 1017.1
20260504020038 56 130 1.0 2.0 0.00 0.00 0.00 67 1017.1
20260504015521 57 121 0.0 2.0 0.00 0.00 0.00 66 1017.1
20260504015021 57 130 0.0 2.0 0.00 0.00 0.00 64 1017.1
20260504014545 58 128 0.0 2.0 0.00 0.00 0.00 63 1017.1
20260504014022 58 152 0.0 3.0 0.00 0.00 0.00 62 1017.0
20260504013522 59 162 1.0 3.0 0.00 0.00 0.00 61 1017.0
20260504013046 59 136 1.0 3.0 0.00 0.00 0.00 60 1017.0
20260504012521 60 129 1.0 3.0 0.00 0.00 0.00 59 1016.9
20260504012024 60 105 1.0 3.0 0.00 0.00 0.00 58 1016.9
20260504011542 60 94 2.0 3.0 0.00 0.00 0.00 57 1016.7
20260504011021 61 128 2.0 3.0 0.00 0.00 0.00 56 1016.7
20260504010521 61 142 1.0 3.0 0.00 0.00 0.00 55 1016.7
20260504010040 61 102 0.0 3.0 0.00 0.00 0.00 54 1016.7
20260504005524 62 129 1.0 3.0 0.00 0.00 0.00 52 1016.6
20260504005021 62 0 0.0 2.0 0.00 0.00 0.00 52 1016.7
20260504004540 63 0 0.0 2.0 0.00 0.00 0.00 51 1016.5
20260504004024 63 198 0.0 2.0 0.00 0.00 0.00 50 1016.5
20260504003523 63 262 0.0 2.0 0.00 0.00 0.00 50 1016.5
20260504003037 64 194 0.0 3.0 0.00 0.00 0.00 49 1016.5
20260504002523 64 183 1.0 3.0 0.00 0.00 0.00 48 1016.4
20260504002020 64 250 1.0 3.0 0.00 0.00 0.00 47 1016.4
20260504001545 65 200 1.0 3.0 0.00 0.00 0.00 47 1016.4
20260504001020 65 235 0.0 2.0 0.00 0.00 0.00 46 1016.4
20260504000524 65 181 0.0 3.0 0.00 0.00 0.00 45 1016.4
20260504000037 66 0 0.0 3.0 0.00 0.00 0.00 45 1016.4
20260503235527 66 141 1.0 7.0 0.00 0.00 0.00 44 1016.4
20260503235023 66 209 1.0 7.0 0.00 0.00 0.00 43 1016.4
20260503234601 67 199 2.0 7.0 0.00 0.00 0.00 43 1016.4
20260503234023 67 175 1.0 3.0 0.00 0.00 0.00 42 1016.4
20260503233521 67 175 1.0 4.0 0.00 0.00 0.00 42 1016.4
20260503233045 67 87 1.0 7.0 0.00 0.00 0.00 41 1016.5
20260503232523 68 132 2.0 7.0 0.00 0.00 0.00 41 1016.6
20260503232024 68 115 3.0 7.0 0.00 0.00 0.00 39 1016.6
20260503231541 68 215 1.0 6.0 0.00 0.00 0.00 40 1016.8
20260503231028 69 163 2.0 6.0 0.00 0.00 0.00 39 1016.7
20260503230526 69 270 2.0 6.0 0.00 0.00 0.00 39 1016.7
20260503230040 69 328 2.0 6.0 0.00 0.00 0.00 39 1016.8
20260503225521 69 169 2.0 5.0 0.00 0.00 0.00 38 1016.9
20260503225023 69 333 2.0 5.0 0.00 0.00 0.00 38 1016.8
20260503224550 70 285 3.0 5.0 0.00 0.00 0.00 37 1017.0
20260503224021 70 239 2.0 5.0 0.00 0.00 0.00 37 1016.9
20260503223520 70 222 1.0 8.0 0.00 0.00 0.00 37 1017.0
20260503223045 70 301 3.0 8.0 0.00 0.00 0.00 36 1016.9
20260503222520 70 299 3.0 5.0 0.00 0.00 0.00 36 1016.9
20260503222023 70 200 1.0 7.0 0.00 0.00 0.00 36 1016.9
20260503221554 70 261 2.0 7.0 0.00 0.00 0.00 36 1016.9
20260503221020 70 340 2.0 10.0 0.00 0.00 0.00 35 1017.0
20260503220521 70 305 0.0 10.0 0.00 0.00 0.00 36 1016.9
20260503220041 70 335 4.0 10.0 0.00 0.00 0.00 35 1017.0
20260503215523 70 317 2.0 8.0 0.00 0.00 0.00 35 1017.0
20260503215024 70 254 2.0 9.0 0.00 0.00 0.00 36 1017.1
20260503214540 70 291 4.0 9.0 0.00 0.00 0.00 34 1017.1
20260503214020 70 300 2.0 6.0 0.00 0.00 0.00 33 1017.0
20260503213524 71 182 2.0 5.0 0.00 0.00 0.00 32 1017.1
20260503213042 71 150 1.0 10.0 0.00 0.00 0.00 34 1017.2
20260503212525 70 354 3.0 10.0 0.00 0.00 0.00 32 1017.3
20260503212024 71 287 3.0 10.0 0.00 0.00 0.00 33 1017.4
20260503211547 70 298 2.0 7.0 0.00 0.00 0.00 34 1017.4
20260503211023 70 318 1.0 6.0 0.00 0.00 0.00 32 1017.5
20260503210523 70 101 2.0 11.0 0.00 0.00 0.00 32 1017.6
20260503210043 71 283 3.0 11.0 0.00 0.00 0.00 30 1017.7
20260503205524 70 344 3.0 11.0 0.00 0.00 0.00 32 1017.8
20260503205023 71 326 8.0 11.0 0.00 0.00 0.00 31 1017.8
20260503204544 71 17 3.0 9.0 0.00 0.00 0.00 30 1017.8
20260503204022 71 284 3.0 8.0 0.00 0.00 0.00 30 1017.9
20260503203523 71 311 3.0 9.0 0.00 0.00 0.00 30 1017.9
20260503203053 71 282 4.0 9.0 0.00 0.00 0.00 31 1018.0
20260503202524 70 275 3.0 11.0 0.00 0.00 0.00 33 1018.0
20260503202028 71 310 4.0 11.0 0.00 0.00 0.00 34 1018.0
20260503201541 71 338 4.0 9.0 0.00 0.00 0.00 37 1018.1
20260503201022 70 321 3.0 8.0 0.00 0.00 0.00 36 1018.2
20260503200523 70 329 2.0 9.0 0.00 0.00 0.00 36 1018.3
20260503200054 71 241 4.0 9.0 0.00 0.00 0.00 34 1018.4
20260503195524 71 300 2.0 8.0 0.00 0.00 0.00 38 1018.4
20260503195025 70 298 4.0 8.0 0.00 0.00 0.00 38 1018.7
20260503194556 70 214 2.0 7.0 0.00 0.00 0.00 37 1018.7